[[{"header":{"parameterUnit":"m.s-1","parameterCategory":1,"la1":30.2991,"la2":30.254,"lo1":-89.0895,"lo2":-89.0444,"dy":0.0017,"dx":0.0017,"nx":28,"ny":28,"refTime":"2025-06-22T03:00:00:Z","depth":0,"parameterNumber":2,"parameterNumberName":"U-component_of_WINDS"},"data":[0,0,0,0,0,0,0,0,0,0,0,0,0,0,0,0,0,0,0,0,0,0,0,0,0,0,0,0,0,0,0,0,0,0,0,0,0,0,0,0,0,0,0,0,0,0,0,0,0,0,0,0,0,0,0,0,0,0,-1.633,-1.6331,0,-1.6358,-1.6358,-1.6358,-1.6333,-1.6332,-1.6331,-1.633,-1.6358,-1.636,-1.6361,0,0,0,0,0,0,0,0,0,0,0,0,0,-1.6258,-1.6259,-1.633,-1.6331,-1.6331,-1.6357,-1.6358,-1.6358,-1.6333,-1.6331,-1.633,-1.6329,-1.6357,-1.6359,-1.6361,0,0,0,0,0,0,0,0,0,0,0,0,0,-1.6287,-1.6259,-1.633,-1.6322,-1.6321,-1.6357,-1.6358,-1.6358,-1.6333,-1.6331,-1.633,-1.6328,-1.6357,-1.6359,-1.6362,-1.6408,0,0,-1.637,-1.6371,0,0,0,0,0,0,0,0,-1.6286,-1.629,-1.6323,-1.6322,-1.6322,-1.634,-1.6343,-1.6375,-1.6333,-1.6329,-1.633,-1.6328,-1.6353,-1.6356,-1.6364,-1.641,-1.6411,-1.637,-1.6371,-1.6372,-1.6373,0,0,0,0,0,0,0,-1.6284,-1.6289,-1.6341,-1.6323,-1.6323,-1.6317,-1.6319,-1.6349,-1.6349,-1.6329,-1.6327,-1.6331,-1.6353,-1.6362,-1.6365,-1.6411,-1.637,-1.6372,-1.6374,-1.6375,-1.6496,-1.6498,0,0,0,0,0,0,-1.6282,-1.6287,-1.634,-1.6342,-1.63,-1.6319,-1.6322,-1.6336,-1.6349,-1.6349,-1.6332,-1.6329,-1.6358,-1.6362,-1.6366,-1.6421,-1.6372,-1.6375,-1.6376,-1.6494,-1.6497,-1.6498,0,0,0,0,0,0,-1.6281,-1.6287,-1.6339,-1.6314,-1.632,-1.6322,-1.6338,-1.6337,-1.6346,-1.6351,-1.6351,-1.6341,-1.6357,-1.6362,-1.6398,-1.6422,-1.6376,-1.6378,-1.6492,-1.6495,-1.6497,-1.6532,0,0,0,0,0,0,-1.6279,-1.6287,-1.6305,-1.6315,-1.6322,-1.6371,-1.6339,-1.6339,-1.6351,-1.6348,-1.636,-1.636,-1.6357,-1.6394,-1.64,-1.6424,-1.638,-1.649,-1.6494,-1.6497,-1.6529,-1.6535,-1.6541,0,0,0,0,0,-1.6276,-1.6313,-1.6306,-1.6312,-1.6344,-1.6372,-1.6376,-1.6371,-1.6353,-1.637,-1.6374,-1.636,-1.6418,-1.6398,-1.6405,-1.643,-1.6489,-1.6493,-1.6496,-1.6526,-1.6534,-1.6541,0,0,0,0,0,0,-1.6306,-1.6314,-1.6306,-1.6347,-1.6359,-1.6368,-1.639,-1.638,-1.6397,-1.6393,-1.6386,-1.6389,-1.6427,-1.6432,-1.6409,-1.6476,-1.6451,-1.6456,-1.6471,-1.6479,-1.6485,-1.6482,-1.6382,0,0,0,0,0,-1.6317,-1.6339,-1.6346,-1.6382,-1.6388,-1.6388,-1.64,-1.6395,-1.6407,-1.6412,-1.6418,-1.643,-1.6451,-1.6465,-1.6485,-1.653,-1.6532,-1.655,-1.6557,-1.6562,-1.6566,-1.659,-1.6598,-1.6511,-1.6511,-1.6511,0,0,-1.6341,-1.6348,-1.6363,-1.6388,-1.6396,-1.642,-1.6392,-1.6418,-1.6435,-1.6416,-1.645,-1.6455,-1.6468,-1.6509,-1.6527,-1.6514,-1.6591,-1.6567,-1.6571,-1.6572,-1.6595,-1.6603,-1.661,-1.6513,-1.6513,-1.6513,0,0,-1.6395,-1.6403,-1.6434,-1.6443,-1.6456,-1.6456,-1.6464,-1.6474,-1.6477,-1.651,-1.6496,-1.6517,-1.6554,-1.6564,-1.6574,-1.6633,-1.6621,-1.664,-1.6672,-1.6695,-1.6702,-1.6708,-1.6729,-1.6737,-1.6644,-1.6645,-1.6645,0,-1.6423,-1.6457,-1.6451,-1.6478,-1.6489,-1.6473,-1.6504,-1.6513,-1.6533,-1.6541,-1.6527,-1.6573,-1.6581,-1.6623,-1.6637,-1.6646,-1.6654,-1.6638,-1.6702,-1.6708,-1.6713,-1.6733,-1.6741,-1.6647,-1.6646,-1.6646,-1.6646,0,-1.649,-1.6514,-1.6537,-1.6556,-1.657,-1.6599,-1.6598,-1.6613,-1.6607,-1.6608,-1.6643,-1.6652,-1.6674,-1.6684,-1.6678,-1.6725,-1.6717,-1.6703,-1.6677,-1.6724,-1.6742,-1.675,-1.665,-1.6649,-1.6648,-1.6648,0,0,-1.6563,-1.6578,-1.6587,-1.6595,-1.6609,-1.6628,-1.6656,-1.6677,-1.669,-1.6704,-1.6728,-1.6759,-1.6746,-1.6757,-1.6753,-1.6774,-1.682,-1.6757,-1.6757,-1.6768,-1.6872,-1.6883,-1.6892,-1.6812,-1.6814,-1.6815,-1.6871,0,-1.6618,-1.6666,-1.6662,-1.6708,-1.673,-1.6716,-1.674,-1.6752,-1.6754,-1.6774,-1.6776,-1.6799,-1.678,-1.6786,-1.6806,-1.681,-1.6841,-1.6806,-1.6834,-1.6835,-1.683,-1.6901,-1.6912,-1.6965,-1.6878,-1.6879,-1.688,0,-1.6688,-1.6704,-1.6752,-1.6763,-1.6772,-1.6794,-1.6813,-1.6832,-1.6845,-1.6845,-1.6858,-1.685,-1.6879,-1.6854,-1.6893,-1.687,-1.6881,-1.6885,-1.6887,-1.6889,-1.686,-1.6904,-1.6981,-1.6989,-1.6892,-1.6891,-1.689,0,-1.6735,-1.677,-1.6803,-1.6811,-1.6824,-1.684,-1.6847,-1.6858,-1.6871,-1.6887,-1.6896,-1.6916,-1.6926,-1.6942,-1.694,-1.6922,-1.698,-1.6955,-1.6981,-1.6982,-1.6994,-1.6993,-1.7073,-1.7002,-1.7002,-1.7002,-1.7002,0,-1.6796,-1.6826,-1.6825,-1.6845,-1.6879,-1.6874,-1.6907,-1.6911,-1.6922,-1.6943,-1.6932,-1.6952,-1.6949,-1.6969,-1.6968,-1.7001,-1.7006,-1.7007,-1.7006,-1.7008,-1.7008,-1.7015,-1.7011,-1.7004,-1.7004,-1.7003,-1.7003,0,-1.6855,-1.6855,-1.689,-1.69,-1.6903,-1.6928,-1.6936,-1.6956,-1.6958,-1.6985,-1.6991,-1.6994,-1.7017,-1.7017,-1.7044,-1.7043,-1.7083,-1.7079,-1.7079,-1.7078,-1.7104,-1.7102,-1.7191,-1.7202,-1.7125,-1.7126,-1.7126,0,-1.6894,-1.6916,-1.6929,-1.6942,-1.6949,-1.6971,-1.6984,-1.698,-1.6994,-1.7011,-1.7029,-1.7051,-1.7069,-1.7107,-1.7112,-1.7133,-1.7128,-1.7158,-1.7131,-1.7132,-1.7128,-1.7126,-1.7128,-1.7163,-1.7164,-1.7165,-1.7165,0,-1.6962,-1.6961,-1.698,-1.6999,-1.7015,-1.703,-1.7043,-1.7055,-1.7053,-1.7069,-1.7093,-1.7107,-1.7135,-1.7157,-1.7177,-1.7184,-1.7174,-1.7174,-1.7181,-1.7182,-1.7181,-1.7182,-1.7093,-1.7172,-1.7171,-1.717,-1.717,-1.717,-1.7011,-1.7031,-1.7042,-1.7064,-1.7074,-1.7087,-1.7106,-1.711,-1.713,-1.7152,-1.7149,-1.7175,-1.7188,-1.7214,-1.7223,-1.7244,-1.7233,-1.7244,-1.7246,-1.7249,-1.7251,-1.7179,-1.7247,-1.7247,-1.7247,-1.7247,-1.7247,0,-1.7078,-1.7085,-1.7105,-1.7125,-1.7142,-1.7131,-1.7146,-1.7161,-1.7185,-1.7197,-1.7215,-1.7243,-1.7265,-1.7271,-1.7293,-1.7308,-1.7304,-1.7314,-1.7312,-1.7314,-1.726,-1.7251,-1.7317,-1.7316,-1.7316,-1.7316,-1.7316,-1.7316,-1.7115,-1.7148,-1.7148,-1.7186,-1.7192,-1.7218,-1.7227,-1.724,-1.725,-1.7281,-1.7299,-1.7303,-1.7314,-1.7336,-1.7355,-1.7357,-1.7365,-1.7376,-1.7376,-1.7325,-1.7318,-1.7311,-1.7303,-1.7378,-1.7378,-1.7428,-1.7429,-1.7429]},{"header":{"parameterUnit":"m.s-1","parameterCategory":1,"la1":30.2991,"la2":30.254,"lo1":-89.0895,"lo2":-89.0444,"dy":0.0017,"dx":0.0017,"nx":28,"ny":28,"refTime":"2025-06-22T03:00:00:Z","depth":0,"parameterNumber":3,"parameterNumberName":"V-component_of_WINDS"},"data":[0,0,0,0,0,0,0,0,0,0,0,0,0,0,0,0,0,0,0,0,0,0,0,0,0,0,0,0,0,0,0,0,0,0,0,0,0,0,0,0,0,0,0,0,0,0,0,0,0,0,0,0,0,0,0,0,0,0,2.1011,2.1011,0,2.0999,2.0999,2.0999,2.093,2.0929,2.0927,2.0926,2.0915,2.0916,2.0917,0,0,0,0,0,0,0,0,0,0,0,0,0,2.0974,2.0975,2.1011,2.1011,2.101,2.0999,2.0999,2.0999,2.0931,2.0929,2.0927,2.0925,2.0914,2.0916,2.0917,0,0,0,0,0,0,0,0,0,0,0,0,0,2.0979,2.0976,2.1011,2.0975,2.0972,2.0999,2.0999,2.0999,2.0931,2.0929,2.0926,2.0924,2.0914,2.0916,2.0917,2.0979,0,0,2.0923,2.0924,0,0,0,0,0,0,0,0,2.0979,2.0981,2.098,2.0978,2.0974,2.0964,2.0982,2.0992,2.0932,2.0947,2.0926,2.0923,2.0933,2.0933,2.0936,2.0978,2.0978,2.0923,2.0924,2.0925,2.0926,0,0,0,0,0,0,0,2.0979,2.0981,2.1006,2.0981,2.0977,2.096,2.0958,2.0984,2.0954,2.0945,2.094,2.094,2.0931,2.0935,2.0936,2.0977,2.0923,2.0925,2.0926,2.0927,2.1067,2.1069,0,0,0,0,0,0,2.0983,2.0981,2.1006,2.1006,2.097,2.0962,2.096,2.097,2.0953,2.0949,2.0942,2.0937,2.0933,2.0934,2.0935,2.1004,2.0925,2.0927,2.0928,2.1064,2.1068,2.107,0,0,0,0,0,0,2.0983,2.0986,2.1007,2.0992,2.0993,2.0966,2.0977,2.0971,2.0974,2.0951,2.0945,2.0951,2.0931,2.0932,2.0968,2.1003,2.0928,2.093,2.1061,2.1065,2.1069,2.1144,0,0,0,0,0,0,2.0982,2.0986,2.1009,2.0993,2.0994,2.104,2.0979,2.0972,2.0978,2.0971,2.0958,2.0954,2.0929,2.0965,2.097,2.1004,2.0931,2.1058,2.1063,2.1068,2.1138,2.115,2.116,0,0,0,0,0,2.0981,2.1031,2.1011,2.1014,2.1022,2.1042,2.1043,2.1013,2.0981,2.1003,2.0988,2.0954,2.0999,2.097,2.0974,2.1009,2.1056,2.1062,2.1067,2.1133,2.1147,2.1159,0,0,0,0,0,0,2.1053,2.1028,2.1005,2.1052,2.105,2.1031,2.1058,2.1029,2.1036,2.1029,2.0993,2.099,2.1031,2.1024,2.0992,2.1067,2.1021,2.1028,2.107,2.1083,2.1094,2.1094,2.0933,0,0,0,0,0,2.1074,2.1092,2.107,2.1113,2.1113,2.1086,2.1094,2.1071,2.1067,2.1066,2.1053,2.1051,2.1064,2.1073,2.1084,2.1137,2.1133,2.1163,2.1174,2.1183,2.1189,2.1215,2.1228,2.109,2.109,2.1089,0,0,2.1118,2.1107,2.1121,2.1127,2.1123,2.1142,2.1086,2.1109,2.1122,2.1069,2.1101,2.1092,2.1087,2.1131,2.115,2.1126,2.1227,2.1191,2.1198,2.1199,2.1223,2.1236,2.1248,2.1094,2.1093,2.1092,0,0,2.1208,2.1202,2.1236,2.1233,2.1226,2.1208,2.1217,2.1202,2.1193,2.1225,2.1185,2.1201,2.1225,2.1223,2.1225,2.1314,2.1282,2.1318,2.1374,2.14,2.1411,2.1421,2.1451,2.1462,2.1325,2.1325,2.1325,0,2.1264,2.129,2.1258,2.1283,2.1287,2.1239,2.1274,2.1272,2.127,2.1273,2.1247,2.1275,2.1269,2.1311,2.1333,2.1336,2.1344,2.1319,2.1412,2.1421,2.143,2.1458,2.147,2.1329,2.1329,2.1328,2.1328,0,2.1358,2.1378,2.1407,2.1405,2.1412,2.1442,2.1413,2.1425,2.1401,2.1386,2.1418,2.1409,2.1416,2.1425,2.1403,2.1464,2.1449,2.1419,2.1372,2.1448,2.1474,2.1484,2.1335,2.1334,2.1333,2.1332,0,0,2.1492,2.1472,2.1483,2.148,2.147,2.1484,2.1512,2.1519,2.1528,2.1529,2.1551,2.1572,2.1543,2.1545,2.1523,2.1546,2.1615,2.1511,2.1511,2.153,2.168,2.1702,2.1715,2.1594,2.1596,2.1598,2.1679,0,2.1577,2.1622,2.1593,2.1643,2.1659,2.1615,2.1639,2.1635,2.1621,2.1634,2.1619,2.1634,2.1595,2.1596,2.1617,2.1602,2.1644,2.1596,2.1613,2.1614,2.1614,2.1729,2.1752,2.1829,2.1689,2.1691,2.1692,0,2.1681,2.1685,2.1736,2.1721,2.1727,2.1749,2.1752,2.1765,2.176,2.1748,2.1751,2.1722,2.1748,2.1703,2.1738,2.1706,2.1712,2.1705,2.1708,2.1707,2.1657,2.1729,2.1853,2.1864,2.1708,2.1707,2.1706,0,2.1771,2.179,2.1822,2.1822,2.1806,2.1822,2.1816,2.1808,2.1814,2.1817,2.182,2.1828,2.1831,2.1837,2.1811,2.1781,2.1849,2.1802,2.184,2.184,2.1854,2.1854,2.198,2.1861,2.1861,2.1861,2.1861,0,2.1868,2.19,2.1862,2.1882,2.1917,2.1884,2.192,2.1909,2.1902,2.1919,2.1882,2.1899,2.1864,2.1878,2.1858,2.1889,2.1891,2.1882,2.1876,2.1885,2.1886,2.1887,2.188,2.1864,2.1863,2.1863,2.1862,0,2.1974,2.195,2.1982,2.1963,2.196,2.1986,2.1971,2.1988,2.1972,2.1994,2.1997,2.1972,2.1986,2.1961,2.1972,2.1959,2.2002,2.1988,2.2003,2.1998,2.2036,2.2033,2.2166,2.2182,2.2055,2.2056,2.2057,0,2.2036,2.206,2.2044,2.2052,2.2048,2.2062,2.2067,2.2036,2.2043,2.2039,2.2057,2.2067,2.2074,2.2098,2.2081,2.2089,2.2074,2.2121,2.2075,2.2082,2.2073,2.2071,2.2073,2.2129,2.2131,2.2132,2.2133,0,2.2148,2.2135,2.2144,2.2149,2.2156,2.2158,2.2158,2.2167,2.2134,2.2144,2.2157,2.2162,2.2173,2.2183,2.2187,2.2181,2.2152,2.2148,2.2157,2.2164,2.2171,2.2167,2.2027,2.2145,2.2143,2.2143,2.2142,2.2142,2.2233,2.2252,2.2243,2.2254,2.225,2.2251,2.2266,2.2251,2.2261,2.2267,2.2248,2.2266,2.2259,2.2261,2.2259,2.2272,2.2251,2.2264,2.2267,2.227,2.2276,2.2171,2.2273,2.2272,2.2272,2.2272,2.2271,0,2.2342,2.2334,2.2345,2.2345,2.2353,2.2325,2.2323,2.2332,2.2347,2.2344,2.235,2.2365,2.2375,2.2359,2.2367,2.238,2.2367,2.2383,2.2381,2.238,2.2294,2.2285,2.2394,2.2394,2.2394,2.2394,2.2394,2.2393,2.24,2.2429,2.2415,2.2442,2.2434,2.2449,2.2451,2.2451,2.2447,2.2465,2.2473,2.2462,2.2454,2.246,2.2468,2.2463,2.2467,2.2487,2.2478,2.2398,2.2386,2.2374,2.2366,2.2489,2.2489,2.2562,2.2562,2.2563]}]]